User: anonymous   Login
Location: Holmes Observatory
(37.1039°N, 122.0513°W)
Time: 13:37:42
(UTC-07:00)
Language:

Cosmos 921 Rocket - Orbit

View from above orbital plane
View from above orbital plane
View from above satellite
View from above satellite

Ground track
Ground track

The orbit data is extracted from the following two-line orbital elements,

1 10096U 77055B   17088.72556938 +.00000125 +00000-0 +15402-4 0  9993
2 10096 075.8338 140.7526 0042218 048.2600 312.2188 14.88541724150223
Epoch (UTC): 29 March 2017 17:24:49
Eccentricity: 0.0042218
inclination: 75.8338°
perigee height: 573 km
apogee height: 632 km
right ascension of ascending node: 140.7526°
argument of perigee: 48.2600°
revolutions per day: 14.88541724
mean anomaly at epoch: 312.2188°
orbit number at epoch: 15022

The dashed part of the orbit path shows where the satellite is in the earth's shadow,  

DLR